Location: Tamazert
(32.6352°N, 5.2072°W)
Time: 03:27:40
(UTC+00:00)

A-11 Canister half - Visible Passes

Search period start: 03 December 2023 00:00
Search period end: 13 December 2023 00:00
Orbit: 1524 x 1684 km, 47.3° (Epoch: 01 December)

Date Brightness Start Highest point End Pass type
(mag) Time Alt. Az. Time Alt. Az. Time Alt. Az.
03 Dec 10.1 03:45:30 30° S 03:45:30 30° S 03:49:49 10° SSE visible
03 Dec 9.1 18:43:34 10° SW 18:53:41 77° SE 18:59:38 29° ENE visible
03 Dec 9.8 20:49:52 10° W 20:57:56 43° NW 20:57:56 43° NW visible
04 Dec 10.5 03:25:29 22° SSE 03:25:29 22° SSE 03:28:14 10° SSE visible
04 Dec 9.2 18:21:50 10° SW 18:31:55 74° SE 18:39:19 21° ENE visible
04 Dec 9.6 20:27:57 10° W 20:37:37 47° NNW 20:37:37 47° NNW visible
05 Dec 10.9 03:05:26 15° SSE 03:05:26 15° SSE 03:06:37 10° SSE visible
05 Dec 9.2 18:00:08 10° SW 18:10:10 70° SE 18:18:58 15° ENE visible
05 Dec 9.6 20:06:04 10° W 20:15:49 49° NNW 20:17:15 46° N visible
05 Dec 11.1 22:14:12 10° WNW 22:15:34 14° WNW 22:15:34 14° WNW visible
06 Dec 9.3 17:38:27 10° SW 17:48:25 67° SE 17:58:26 10° ENE visible
06 Dec 9.6 19:44:10 10° W 19:53:59 50° NNW 19:56:52 41° NNE visible
06 Dec 10.9 21:52:18 10° WNW 21:55:10 19° NW 21:55:10 19° NW visible
07 Dec 9.6 19:22:17 10° W 19:32:08 52° NNW 19:36:26 34° NNE visible
07 Dec 10.6 21:30:24 10° WNW 21:34:44 24° NW 21:34:44 24° NW visible
08 Dec 9.6 19:00:25 10° WSW 19:10:18 54° NNW 19:15:58 28° NE visible
08 Dec 10.4 21:08:30 10° WNW 21:14:16 29° NW 21:14:16 29° NW visible
09 Dec 9.5 18:38:34 10° WSW 18:48:28 56° NNW 18:55:28 22° NE visible
09 Dec 10.1 20:46:35 10° WNW 20:53:46 33° NNW 20:53:46 33° NNW visible
10 Dec 9.5 18:16:43 10° WSW 18:26:39 58° NNW 18:34:58 16° NE visible
10 Dec 10.0 20:24:41 10° WNW 20:33:15 35° N 20:33:15 35° N visible
11 Dec 9.5 17:54:51 10° WSW 18:04:50 60° NNW 18:14:26 12° NE visible
11 Dec 9.9 20:02:46 10° WNW 20:11:52 35° N 20:12:44 35° N visible
11 Dec 11.1 22:09:51 10° NW 22:11:01 14° NW 22:11:01 14° NW visible
12 Dec 9.5 17:33:01 10° WSW 17:43:00 62° NNW 17:53:06 10° NE visible
12 Dec 9.9 19:40:51 10° WNW 19:49:59 36° N 19:52:11 33° NNE visible
12 Dec 10.9 21:48:01 10° NW 21:50:29 19° NW 21:50:29 19° NW visible
